Das Wetter in  D-61279 Heinzenberg / Taunus





Wetter Minimum- & Maximum-Werte im Juli 2014

Standort: Heinzenberg / Taunus - Höhe 297 m         8 24' 1" Ost 50 21' 51" Nord
(   3-stündige Aktualisierung    letzte Aktualisierung um 19:04 am 31.07.2014  )


Messgrösse

Minimum

Maximum

Durchschnitt

Temperatur West /
Luftfeuchte West
Anklicken für Monats-Diagramm

6,5 C

06:09
02.07.2014

26 %

18:35
03.07.2014

34,2 C

17:29
19.07.2014

93 %

05:10
09.07.2014

Temp

19,4 C

Feuchte

72 %

Temperatur Ost /
Luftfeuchte Ost
Anklicken für Monats-Diagramm

-20,0 C

07:39
29.07.2014

--

--
--

79,7 C

01:11
10.07.2014

--

--
--

21,2 C

--

Luftdruck Anklicken für Monats-Diagramm

1005,1 hPa

16:45
09.07.2014

1025,2 hPa

03:10
03.07.2014

1013,6 hPa

Taupunkt

3,3 C

06:09
02.07.2014

20,1 C

19:44
19.07.2014

13,7 C

Windchill
( gefühlte Temperatur )

1,8 C

08:50
09.07.2014

34,2 C

17:29
19.07.2014

18,6 C

Windgeschwindigkeit /
Windrichtung
Anklicken für Monats-Diagramm

---

73,0 km/h / W-SW

21:48
06.07.2014

6,7 km/h
NW

Helligkeit /
Sonnenschein
Anklicken für Monats-Diagramm
Anklicken für Monats-Diagramm

Sonnenschein:

186:27 Stunden

Max: 14:05 Std am
03.07.2014

106 klux

13:46
10.07.2014

31 klux

Solarstrahlung Anklicken für Monats-Diagramm

---

725 W/m

13:46
10.07.2014

226 W/m

Regenmenge
    Juli 2014
Anklicken für Monats-Diagramm

Insgesamt 113,5 l/m

in 62:12 Stunden
an 17 Tagen

24,6 l/m

03:34
08.07.2014

Gesamtmenge

113,5 l/m

Regen-Tage
    Juli 2014
Anklicken für Monats-Diagramm

>   0 mm/Tag

>   2 mm/Tag

>   5 mm/Tag

> 10 mm/Tag

> 20 mm/Tag

17 Tage     
10 Tage     
8 Tage     
4 Tage     
  1 Tag     

Eisige Tage Juli 2014 / 2013

Tmin ≤ -10C     

0 Tage

/

0 Tage

Eistage Juli 2014 / 2013

Tmax <     0C     

0 Tage

/

0 Tage

Frosttage Juli 2014 / 2013

Tmin ≤     0C     

0 Tage

/

0 Tage

Kalte Tage Juli 2014 / 2013

Tmax <   10C     

0 Tage

/

0 Tage

Warme Tage Juli 2014 / 2013

Tmax ≥   20C     

29 Tage

/

30 Tage

Sommertage Juli 2014 / 2013

Tmax ≥   25C     

20 Tage

/

25 Tage

Heisse Tage Juli 2014 / 2013

Tmax ≥   30C     

8 Tage

/

8 Tage


Monatsdiagramm Juli 2014

Die Kurven zeigen den Durchschnittswert des jeweiligen Tages an


Wetter-Monatsübersicht Juli 2014
Datum
  Temperatur
   Luftdruck
   Wind
  Regen
   Luftfeuchte
   Helligkeit

Sonnen-
schein


Temp.

Min.
Temp.

Max.
Temp.


Luftdruck

Min.
Luftdruck

Max.
Luftdruck

-Geschw.
Haupt-Richtg.

Max.
Wind

Menge /
Dauer


Feuchte

Min.
Feuchte

Max.
Feuchte


Helligkeit

Max.
Helligkeit

1.
Juli
14,5 C6,6 C
05:34
22,4 C
17:34
1018,5 hPa1016,4 hPa
17:34
1020,3 hPa
06:44
5,7 km/h
NW
21,2 km/h
14:29  
---
64 %38 %
17:34
86 %
07:44
34,9 klux102,0 klux
14:19
7:54 Std 
2.
Juli
16,1 C6,5 C
06:09
25,4 C
17:44
1020,8 hPa1019,2 hPa
18:09
1023,7 hPa
23:55
6,1 km/h
W-NW
25,0 km/h
16:29  
---
58 %33 %
17:24
83 %
07:54
43 klux92 klux
14:04
13:20 Std 
3.
Juli
19,2 C8,2 C
06:05
30,6 C
18:45
1021,8 hPa1017,7 hPa
19:15
1025,2 hPa
03:10
6,5 km/h
W
32,9 km/h
13:15  
---
54 %26 %
18:35
81 %
07:40
43,6 klux81,8 klux
13:30
14:05 Std 
4.
Juli
20,9 C11,1 C
06:11
30,4 C
18:11
1013,0 hPa1006,4 hPa
19:11
1019,6 hPa
02:36
5,6 km/h
SO
29,4 km/h
12:11  
0,3 l/m
1:00 Stunden
55 %31 %
13:56
76 %
07:46
35,1 klux83,7 klux
12:26
7:30 Std 
5.
Juli
19,0 C15,7 C
04:37
24,0 C
12:22
1009,0 hPa1007,5 hPa
09:02
1011,7 hPa
23:18
12,1 km/h
W-SW
38,6 km/h
13:42  
0,2 l/m
1:15 Stunden
75 %59 %
13:22
82 %
21:37
21,8 klux103,0 klux
11:37
55 Min 
6.
Juli
22,8 C16,4 C
22:49
30,7 C
18:43
1009,3 hPa1005,2 hPa
18:43
1011,9 hPa
23:54
13,3 km/h
W-SW
73,0 km/h
21:48  
6,5 l/m
2:56 Stunden
66 %38 %
18:43
87 %
05:08
40 klux102 klux
14:33
9:00 Std 
7.
Juli
18,1 C14,1 C
06:54
24,2 C
17:44
1015,3 hPa1011,9 hPa
00:14
1018,3 hPa
09:34
6,1 km/h
NW
17,6 km/h
01:19  
---
69 %39 %
17:44
88 %
05:34
29 klux100 klux
12:44
1:44 Std 
8.
Juli
15,0 C12,2 C
23:55
17,1 C
00:04
1008,2 hPa1006,8 hPa
11:29
1012,9 hPa
00:04
11,4 km/h
W
32,0 km/h
20:14  
24,6 l/m
9:30 Stunden
87 %69 %
00:04
92 %
21:44
7 klux28 klux
11:14
--- 
9.
Juli
12,0 C10,8 C
05:50
13,1 C
16:45
1007,0 hPa1005,1 hPa
16:45
1009,4 hPa
01:55
14,6 km/h
W
31,0 km/h
12:20  
17,8 l/m
16:15 Stunden
92 %92 %
00:00
93 %
05:10
7,1 klux18,1 klux
15:40
--- 
10.
Juli
16,5 C12,4 C
06:01
24,8 C
18:11
1008,9 hPa1006,2 hPa
00:11
1012,1 hPa
23:52
4,2 km/h
NW
31,5 km/h
20:06  
14,0 l/m
2:00 Stunden
84 %65 %
18:46
92 %
00:01
28,5 klux106,0 klux
13:46
3:35 Std 
11.
Juli
17,5 C13,1 C
05:27
25,2 C
13:22
1012,6 hPa1011,0 hPa
13:47
1014,1 hPa
08:52
3,1 km/h
NW
31,7 km/h
14:57  
2,3 l/m
2:05 Stunden
86 %60 %
13:42
92 %
06:27
25 klux97 klux
13:37
3:05 Std 
12.
Juli
19,1 C16,4 C
06:13
23,9 C
16:13
1011,8 hPa1010,0 hPa
16:13
1013,0 hPa
06:13
11,3 km/h
W
30,6 km/h
16:33  
0,2 l/m
25 Minuten
81 %63 %
16:18
92 %
06:23
33,3 klux98,8 klux
13:33
5:44 Std 
13.
Juli
17,1 C15,4 C
05:59
20,6 C
14:54
1009,5 hPa1007,3 hPa
14:54
1012,0 hPa
03:04
7,4 km/h
W-SW
27,3 km/h
14:59  
8,7 l/m
4:25 Stunden
85 %72 %
14:59
91 %
10:19
17,8 klux90,9 klux
13:04
1:20 Std 
14.
Juli
18,5 C15,2 C
07:10
23,3 C
15:15
1012,5 hPa1008,8 hPa
00:00
1018,2 hPa
23:56
12,3 km/h
W-SW
30,1 km/h
10:25  
---
76 %59 %
11:55
90 %
05:10
37,9 klux101,0 klux
13:35
8:30 Std 
15.
Juli
19,2 C12,6 C
06:21
26,3 C
17:31
1019,7 hPa1018,2 hPa
00:01
1022,2 hPa
23:52
8,0 km/h
NW
29,0 km/h
14:31  
---
69 %46 %
14:21
89 %
08:21
42 klux93 klux
13:26
11:14 Std 
16.
Juli
20,8 C14,7 C
02:37
28,8 C
18:27
1021,3 hPa1018,8 hPa
18:52
1022,5 hPa
02:37
4,7 km/h
NW
22,1 km/h
14:17  
---
66 %40 %
18:22
86 %
08:07
40,0 klux96,9 klux
11:17
9:45 Std 
17.
Juli
21,7 C12,6 C
06:03
31,1 C
17:03
1020,9 hPa1018,5 hPa
17:03
1022,8 hPa
06:03
2,2 km/h
SO
14,0 km/h
19:33  
---
64 %41 %
17:08
84 %
07:33
39,2 klux94,9 klux
14:03
10:35 Std 
18.
Juli
23,9 C14,2 C
06:39
33,9 C
18:29
1017,4 hPa1014,1 hPa
18:29
1020,5 hPa
06:39
7,1 km/h
SO
25,6 km/h
12:34  
---
59 %32 %
18:04
84 %
07:34
42,5 klux78,6 klux
13:49
13:15 Std 
19.
Juli
24,7 C15,2 C
06:44
34,2 C
17:29
1012,8 hPa1009,1 hPa
19:14
1016,8 hPa
00:39
8,7 km/h
SO
35,9 km/h
13:49  
---
58 %34 %
13:49
80 %
07:54
40,6 klux77,8 klux
14:09
11:00 Std 
20.
Juli
22,1 C18,0 C
06:09
29,3 C
14:34
1009,9 hPa1008,4 hPa
14:34
1011,7 hPa
07:39
6,5 km/h
W-SW
32,8 km/h
15:54  
2,0 l/m
2:39 Stunden
70 %48 %
14:39
85 %
23:36
18,1 klux81,3 klux
13:09
41 Min 
21.
Juli
20,0 C17,9 C
06:51
22,9 C
15:26
1010,9 hPa1009,6 hPa
08:36
1012,7 hPa
23:57
3,0 km/h
NW
22,7 km/h
18:36  
3,3 l/m
3:55 Stunden
84 %74 %
15:41
90 %
08:06
18,9 klux63,0 klux
15:16
35 Min 
22.
Juli
22,5 C18,3 C
04:12
29,7 C
16:57
1014,7 hPa1012,7 hPa
01:22
1017,8 hPa
23:53
4,5 km/h
NO
23,0 km/h
16:22  
1,7 l/m
3:05 Stunden
74 %47 %
16:27
91 %
06:02
32,9 klux80,0 klux
14:57
4:30 Std 
23.
Juli
22,5 C15,5 C
05:58
30,0 C
17:18
1016,2 hPa1013,5 hPa
17:18
1018,3 hPa
05:58
7,7 km/h
SO
31,8 km/h
13:13  
---
66 %38 %
17:38
88 %
07:13
38,4 klux84,9 klux
13:58
6:30 Std 
24.
Juli
19,9 C13,8 C
06:19
28,4 C
14:14
1013,9 hPa1011,7 hPa
16:19
1016,0 hPa
01:39
6,0 km/h
SO
25,7 km/h
18:04  
0,3 l/m
30 Minuten
67 %40 %
16:09
83 %
05:59
32,9 klux86,2 klux
14:04
7:10 Std 
25.
Juli
19,0 C13,6 C
06:30
25,4 C
16:15
1013,0 hPa1010,9 hPa
16:15
1015,1 hPa
00:00
3,5 km/h
NO
22,3 km/h
18:25  
0,2 l/m
20 Minuten
73 %52 %
16:10
86 %
07:25
33,9 klux86,9 klux
12:30
6:45 Std 
26.
Juli
19,3 C12,7 C
06:21
26,5 C
15:01
1012,9 hPa1011,8 hPa
15:01
1014,8 hPa
23:56
3,2 km/h
W-NW
14,6 km/h
17:06  
---
73 %50 %
15:06
88 %
08:41
29,8 klux80,4 klux
14:11
4:20 Std 
27.
Juli
20,9 C14,4 C
06:22
28,5 C
17:32
1014,8 hPa1012,6 hPa
17:32
1016,3 hPa
07:22
5,9 km/h
NW
23,1 km/h
12:47  
---
70 %49 %
17:27
87 %
08:27
39,1 klux84,2 klux
12:32
8:00 Std 
28.
Juli
21,4 C15,5 C
07:18
30,2 C
16:18
1011,1 hPa1007,3 hPa
16:18
1014,8 hPa
01:53
4,6 km/h
SO
19,7 km/h
12:33  
5,2 l/m
1:56 Stunden
70 %43 %
16:18
85 %
07:43
34,3 klux89,6 klux
15:03
5:50 Std 
29.
Juli
20,4 C18,0 C
05:54
26,9 C
17:09
1008,3 hPa1005,6 hPa
17:09
1009,7 hPa
00:19
3,1 km/h
NO
19,3 km/h
13:39  
19,6 l/m
5:16 Stunden
83 %62 %
17:14
91 %
09:24
21,5 klux86,2 klux
14:04
1:20 Std 
30.
Juli
18,8 C16,6 C
23:40
20,8 C
18:25
1010,3 hPa1007,6 hPa
02:30
1015,0 hPa
23:45
4,8 km/h
NW
18,5 km/h
15:00  
6,8 l/m
4:40 Stunden
85 %72 %
19:15
92 %
07:50
14,1 klux37,5 klux
14:10
10 Min 
31.
Juli
19,1 C12,9 C
06:50
28,1 C
18:10
1014,9 hPa1012,7 hPa
18:10
1017,3 hPa
08:40
3,4 km/h
NW
16,8 km/h
13:35  
---
74 %45 %
17:55
90 %
07:30
37,8 klux81,4 klux
13:21
8:05 Std 



Juli
2014

Temperatur

  

Luftdruck

  

Wind

  

Regen

  

Luftfeuchte

  

Helligkeit

Sonnen-
schein

Min

Max

Min

Max

Max

Max

Min

Max

Max

Max

19,4 C

6,5 C

06:09 Uhr
02.07.2014

34,2 C

17:29 Uhr
19.07.2014

1013,6 hPa

1005,1 hPa

16:45 Uhr
09.07.2014

1025,2 hPa

03:10 Uhr
03.07.2014

6,7 km/h

NW

73,0 km/h

21:48 Uhr
06.07.2014

24,6 l/m

9:30 Stunden
08.07.2014

72 %

26 %

18:35 Uhr
03.07.2014

93 %

05:10 Uhr
09.07.2014

30,9 klux

106,0 klux

13:46 Uhr
10.07.2014

14:05 Std

am
03.07.2014

Gesamt

Gesamt

113,5 l/m

17 Tage
62:12 h

186:27 Std


Wetter-Diagramme Juli 2014     Heinzenberg / Taunus   
TemperaturLuftfeuchte
SolarstrahlungLuftdruck
HelligkeitSonnenschein
RegenmengeRegendauer
Wind-GeschwindigkeitWind-Richtung